KANOPUS-V 6 (43877 NORAD) Tracking and Keplerian Element Data

This shows tracking and keplerian element data for the satellite.

Feedback or suggestion? Click here.




ElementValue
Catalog43877
NameKANOPUS-V 6
Epoch Orbit125
Epoch Day17.80043779
Epoch Year2019
RAAN287.7695
Inclination97.4678
Eccentricity0.0007967
Argument of Perigee23.4245
Mean Anonmoly336.7352
Mean Motion15.20303267
Decay Rate1.42E-06
L11 43877U 18111B 19017.80043779 .00000142 00000-0 97110-5 0 9997
L22 43877 97.4678 287.7695 0007967 23.4245 336.7352 15.20303267 1251

Live tracking and technical data element details for KANOPUS-V 6 (NORAD 43877). KANOPUS-V 6 can be tracked NOW for your location showing map with azimuth and elevation plus other details from your city location.

Track the satellite on the map from your city or location and see movement details for azimuth, elevation, latitude, longitude, range, height, and movement on the map or in text.







IsCatalogInMostPopularTable: catalog: 43877, numindb: 15
Update: records affected: 1



GetName: 43877 KANOPUS-V 6

Hit Count: updated at: Fri, 18 Jan 2019 21:37:56 GMT